Showing default

FLYLAB 1, 68472

Orbit data source: Space-Track

FLYLAB 1, 68472 is a payload satellite owned by ONERA (FR) in SSO that was launched on Mon, 30 Mar 2026 UTC via an FALCON 9 launch vehicle from the Air Force Western Test Range (AFWTR). Payload-class satellites include a variety of spacecraft equipped with specific instruments for various scientific and technological missions. These include communications satellites like Starlink; space stations such as the ISS; scientific satellites like the Hubble; Earth observation satellites from companies like Planet Labs, Umbra, and HawkEye 360; GPS; miniature CubeSats for education and research; and military/defense satellites.

Loading next visibility...
Identifier
68472, 2026-067BJ
Orbit
SSO
Country
Flag of FRFR
Related business
Manufacturer
NanoAvionics
Mission
Operational Civil Technology
Bus & Motor
CUBESAT 8U, Unknown motor
Mass
15 kg wet, ~15 kg dry
Launch date (UTC)
2026-03-30 (6 months ago)
Launch vehicle
FALCON 9
Launch site
Air Force Western Test Range (AFWTR)
Object type
Payload
Rocket body
Debris
Shape & HBR
Box + 4 Pan, 1.0 m
Radar Cross Section
0.159 m², Medium (>0.1 m² and < 1m²)

Expand to show TLE details & history
Last TLE update: 4 days ago

TLE from 4 days ago
0 FLYLAB 1
1 68472U 26067BJ  26259.54399867  .00000869  00000-0  91184-4 0  9993
2 68472  97.7731 216.3281 0005277  98.5027 261.6790 14.92051137 25346
Epoch: 2026-09-16T13:03Z
TLE epoch observation values (Epoch: 2026-09-16T13:03:21.485Z)
Latitude
-0.00001°
Longitude
24.99451°
Altitude
595.117 km
Speed
7.562 km/s
True Right ascension
14h 25m 18s
True Declination
0° 00' 00"
Sunlit
Object was in daylight at epoch
Visualization orbit readout
Latitude
Unknown
Longitude
Unknown
Altitude
Unknown
Speed
Unknown
Apparent Right ascension
Unknown
Apparent Declination
Unknown
Sunlit
N/A
Visualization observer readout
Local Sidereal Time
05:12:29
Azimuth
Unknown
Elevation
Unknown
Doppler factor
Unknown
Orbital elements
Apogee altitude
592.236 km
Perigee altitude
584.884 km
Semi-major axis
6,966.697 km
Eccentricity
0.00053
Inclination
97.7731°
RAAN
216.3281°
Arg. of periapsis
98.5027°
True anomaly
261.61917°
Mean anomaly
261.679°
Eccentric anomaly
261.64909°
Mean motion
3.73253 °/min
Orbital period
96.45 mins
BSTAR
0.000091184
Loading maneuver chart data...
Computing Atmospheric mass density...
Loading historical data...
Loading historical data...
Loading historical data...
Loading historical data...
Loading historical data...
Loading historical data...
Loading historical data...

Documentation

Showing up to 5 results
|